Time,TemperatureF,DewpointF,PressureIn,WindDirection,WindDirectionDegrees,WindSpeedMPH,WindSpeedGustMPH,Humidity,HourlyPrecipIn,Conditions,Clouds,dailyrainin,SoftwareType,DateUTC
2013-04-23 00:02:00,48.9,38.8,29.90,NNE,32,11.0,33.0,36,0.00,,,0.00,meteohub,2013-04-23 07:02:00,
2013-04-23 00:07:00,48.9,38.8,29.90,WSW,253,28.0,33.0,36,0.00,,,0.00,meteohub,2013-04-23 07:07:00,
2013-04-23 00:12:00,48.9,38.8,29.90,West,260,18.0,29.0,36,0.00,,,0.00,meteohub,2013-04-23 07:12:00,
2013-04-23 00:18:00,48.7,38.7,29.91,WSW,256,23.0,31.0,36,0.00,,,0.00,meteohub,2013-04-23 07:18:00,
2013-04-23 00:23:00,48.7,38.7,29.90,SW,232,20.0,31.0,36,0.00,,,0.00,meteohub,2013-04-23 07:23:00,
2013-04-23 00:29:00,48.6,38.7,29.90,SW,229,21.0,31.0,36,0.00,,,0.00,meteohub,2013-04-23 07:29:00,
2013-04-23 00:34:00,48.6,38.5,29.90,NNW,346,18.0,29.0,36,0.00,,,0.00,meteohub,2013-04-23 07:34:00,
2013-04-23 00:40:00,48.6,38.3,29.90,WSW,239,24.0,29.0,36,0.00,,,0.00,meteohub,2013-04-23 07:40:00,
2013-04-23 00:45:00,48.7,38.3,29.90,WSW,253,24.0,30.0,36,0.00,,,0.00,meteohub,2013-04-23 07:45:00,
2013-04-23 00:51:00,48.7,38.3,29.90,SSW,194,14.0,31.0,36,0.00,,,0.00,meteohub,2013-04-23 07:51:00,
2013-04-23 00:56:00,48.7,38.1,29.90,NE,37,13.0,28.0,36,0.00,,,0.00,meteohub,2013-04-23 07:56:00,
2013-04-23 01:01:00,48.7,38.1,29.90,SW,225,18.0,30.0,36,0.00,,,0.00,meteohub,2013-04-23 08:01:00,
2013-04-23 01:06:00,48.9,37.9,29.89,SW,226,15.0,30.0,36,0.00,,,0.00,meteohub,2013-04-23 08:06:00,
2013-04-23 01:11:00,48.9,37.9,29.90,WSW,255,19.0,30.0,36,0.00,,,0.00,meteohub,2013-04-23 08:11:00,
2013-04-23 01:17:00,49.3,37.9,29.90,WSW,250,11.0,30.0,36,0.00,,,0.00,meteohub,2013-04-23 08:17:00,
2013-04-23 01:22:00,49.3,37.8,29.90,WSW,242,22.0,28.0,36,0.00,,,0.00,meteohub,2013-04-23 08:22:00,
2013-04-23 01:27:00,49.1,37.8,29.90,SW,215,20.0,28.0,36,0.00,,,0.00,meteohub,2013-04-23 08:27:00,
2013-04-23 01:32:00,49.1,37.8,29.90,NW,314,13.0,27.0,36,0.00,,,0.00,meteohub,2013-04-23 08:32:00,
2013-04-23 01:37:00,49.1,37.6,29.89,West,277,18.0,27.0,36,0.00,,,0.00,meteohub,2013-04-23 08:37:00,
2013-04-23 01:43:00,48.9,37.6,29.89,North,0,9.0,28.0,36,0.00,,,0.00,meteohub,2013-04-23 08:43:00,
2013-04-23 01:48:00,48.9,37.6,29.89,NE,40,12.0,28.0,36,0.00,,,0.00,meteohub,2013-04-23 08:48:00,
2013-04-23 01:53:00,48.9,37.6,29.89,SW,228,25.0,26.0,36,0.00,,,0.00,meteohub,2013-04-23 08:53:00,
2013-04-23 01:59:00,49.1,37.4,29.88,South,172,17.0,29.0,36,0.00,,,0.00,meteohub,2013-04-23 08:59:00,
2013-04-23 02:04:00,48.9,37.4,29.88,East,81,16.0,29.0,36,0.00,,,0.00,meteohub,2013-04-23 09:04:00,
2013-04-23 02:09:00,48.9,37.4,29.88,WNW,284,14.0,28.0,36,0.00,,,0.00,meteohub,2013-04-23 09:09:00,
2013-04-23 02:14:00,48.9,37.2,29.88,WNW,293,13.0,26.0,36,0.00,,,0.00,meteohub,2013-04-23 09:14:00,
2013-04-23 02:20:00,48.9,37.2,29.88,SSW,197,16.0,27.0,36,0.00,,,0.00,meteohub,2013-04-23 09:20:00,
2013-04-23 02:25:00,48.7,37.2,29.88,SW,225,11.0,28.0,36,0.00,,,0.00,meteohub,2013-04-23 09:25:00,
2013-04-23 02:30:00,48.7,37.0,29.88,North,11,18.0,27.0,36,0.00,,,0.00,meteohub,2013-04-23 09:30:00,
2013-04-23 02:36:00,48.6,37.0,29.88,NE,38,16.0,29.0,36,0.00,,,0.00,meteohub,2013-04-23 09:36:00,
2013-04-23 02:41:00,48.4,37.0,29.88,West,260,15.0,29.0,36,0.00,,,0.00,meteohub,2013-04-23 09:41:00,
2013-04-23 02:46:00,48.4,36.9,29.88,NNW,348,8.0,29.0,36,0.00,,,0.00,meteohub,2013-04-23 09:46:00,
2013-04-23 02:52:00,48.4,36.9,29.88,WSW,248,21.0,27.0,36,0.00,,,0.00,meteohub,2013-04-23 09:52:00,
2013-04-23 02:57:00,48.4,36.7,29.88,North,356,23.0,27.0,36,0.00,,,0.00,meteohub,2013-04-23 09:57:00,
2013-04-23 03:02:00,48.7,36.7,29.88,WNW,294,17.0,31.0,36,0.00,,,0.00,meteohub,2013-04-23 10:02:00,
2013-04-23 03:07:00,48.9,36.7,29.88,NNW,342,18.0,31.0,36,0.00,,,0.00,meteohub,2013-04-23 10:07:00,
2013-04-23 03:12:00,49.1,36.5,29.88,NW,314,14.0,26.0,36,0.00,,,0.00,meteohub,2013-04-23 10:12:00,
2013-04-23 03:18:00,49.3,36.5,29.88,NW,323,10.0,26.0,36,0.00,,,0.00,meteohub,2013-04-23 10:18:00,
2013-04-23 03:23:00,49.3,36.5,29.88,NW,314,13.0,26.0,36,0.00,,,0.00,meteohub,2013-04-23 10:23:00,
2013-04-23 03:28:00,49.5,36.3,29.88,WSW,237,16.0,26.0,36,0.00,,,0.00,meteohub,2013-04-23 10:28:00,
2013-04-23 03:34:00,49.8,36.3,29.88,NW,312,14.0,23.0,36,0.00,,,0.00,meteohub,2013-04-23 10:34:00,
2013-04-23 03:39:00,50.0,35.6,29.89,NW,306,12.0,24.0,35,0.00,,,0.00,meteohub,2013-04-23 10:39:00,
2013-04-23 03:44:00,50.0,35.6,29.89,SW,224,9.0,26.0,35,0.00,,,0.00,meteohub,2013-04-23 10:44:00,
2013-04-23 03:49:00,50.2,35.6,29.89,NNW,346,11.0,26.0,35,0.00,,,0.00,meteohub,2013-04-23 10:49:00,
2013-04-23 03:55:00,50.2,35.6,29.89,WSW,240,14.0,26.0,35,0.00,,,0.00,meteohub,2013-04-23 10:55:00,
2013-04-23 04:00:00,50.2,35.6,29.90,NW,322,12.0,25.0,35,0.00,,,0.00,meteohub,2013-04-23 11:00:00,
2013-04-23 04:05:00,50.0,35.6,29.90,SW,222,19.0,22.0,35,0.00,,,0.00,meteohub,2013-04-23 11:05:00,
2013-04-23 04:10:00,50.4,35.4,29.90,West,281,17.0,21.0,35,0.00,,,0.00,meteohub,2013-04-23 11:10:00,
2013-04-23 04:16:00,50.4,35.4,29.90,SSW,193,16.0,24.0,35,0.00,,,0.00,meteohub,2013-04-23 11:16:00,
2013-04-23 04:21:00,50.4,35.2,29.90,NE,41,15.0,24.0,35,0.00,,,0.00,meteohub,2013-04-23 11:21:00,
2013-04-23 04:26:00,50.0,35.2,29.90,WSW,246,21.0,24.0,35,0.00,,,0.00,meteohub,2013-04-23 11:26:00,
2013-04-23 04:31:00,50.0,35.2,29.90,North,350,17.0,24.0,35,0.00,,,0.00,meteohub,2013-04-23 11:31:00,
2013-04-23 04:37:00,49.6,35.1,29.90,NNW,346,17.0,24.0,35,0.00,,,0.00,meteohub,2013-04-23 11:37:00,
2013-04-23 04:41:00,49.6,35.1,29.90,WSW,257,14.0,23.0,35,0.00,,,0.00,meteohub,2013-04-23 11:41:00,
2013-04-23 04:47:00,49.6,35.1,29.90,South,185,13.0,23.0,35,0.00,,,0.00,meteohub,2013-04-23 11:47:00,
2013-04-23 04:52:00,49.8,35.1,29.90,NNE,25,12.0,24.0,35,0.00,,,0.00,meteohub,2013-04-23 11:52:00,
2013-04-23 04:57:00,50.0,34.9,29.90,WSW,257,11.0,24.0,35,0.00,,,0.00,meteohub,2013-04-23 11:57:00,
2013-04-23 05:02:00,50.2,34.9,29.91,NE,40,13.0,24.0,35,0.00,,,0.00,meteohub,2013-04-23 12:02:00,
2013-04-23 05:07:00,50.4,34.9,29.91,West,274,12.0,24.0,35,0.00,,,0.00,meteohub,2013-04-23 12:07:00,
2013-04-23 05:12:00,50.4,34.9,29.91,ENE,57,17.0,24.0,35,0.00,,,0.00,meteohub,2013-04-23 12:12:00,
2013-04-23 05:17:00,50.9,34.7,29.91,SW,232,15.0,23.0,35,0.00,,,0.00,meteohub,2013-04-23 12:17:00,
2013-04-23 05:23:00,50.7,34.7,29.92,NNW,348,11.0,23.0,35,0.00,,,0.00,meteohub,2013-04-23 12:23:00,
2013-04-23 05:28:00,50.4,34.7,29.93,West,260,12.0,20.0,35,0.00,,,0.00,meteohub,2013-04-23 12:28:00,
2013-04-23 05:34:00,49.8,34.7,29.93,SW,231,10.0,20.0,35,0.00,,,0.00,meteohub,2013-04-23 12:34:00,
2013-04-23 05:39:00,49.5,34.7,29.93,SSE,166,6.0,20.0,35,0.00,,,0.00,meteohub,2013-04-23 12:39:00,
2013-04-23 05:44:00,50.0,34.7,29.94,WSW,246,8.0,18.0,35,0.00,,,0.00,meteohub,2013-04-23 12:44:00,
2013-04-23 05:49:00,50.2,34.5,29.94,NNE,27,3.0,16.0,35,0.00,,,0.00,meteohub,2013-04-23 12:49:00,
2013-04-23 05:55:00,50.5,34.5,29.95,WSW,238,5.0,13.0,35,0.00,,,0.00,meteohub,2013-04-23 12:55:00,
2013-04-23 06:00:00,50.7,34.3,29.94,WNW,285,6.0,11.0,35,0.00,,,0.00,meteohub,2013-04-23 13:00:00,
2013-04-23 06:05:00,50.5,34.3,29.94,WSW,249,10.0,10.0,35,0.00,,,0.00,meteohub,2013-04-23 13:05:00,
2013-04-23 06:11:00,50.9,34.3,29.94,ENE,63,8.0,12.0,35,0.00,,,0.00,meteohub,2013-04-23 13:11:00,
2013-04-23 06:16:00,50.9,34.3,29.94,WSW,239,5.0,12.0,35,0.00,,,0.00,meteohub,2013-04-23 13:16:00,
2013-04-23 06:21:00,51.4,34.3,29.94,West,273,6.0,12.0,35,0.00,,,0.00,meteohub,2013-04-23 13:21:00,
2013-04-23 06:27:00,52.5,34.2,29.94,West,274,5.0,10.0,35,0.00,,,0.00,meteohub,2013-04-23 13:27:00,
2013-04-23 06:32:00,53.8,34.2,29.94,West,264,6.0,9.0,35,0.00,,,0.00,meteohub,2013-04-23 13:32:00,
2013-04-23 06:37:00,54.7,34.2,29.95,SW,231,4.0,12.0,35,0.00,,,0.00,meteohub,2013-04-23 13:37:00,
2013-04-23 06:42:00,56.1,34.2,29.95,WSW,250,9.0,12.0,35,0.00,,,0.00,meteohub,2013-04-23 13:42:00,
2013-04-23 06:47:00,55.6,34.2,29.96,NW,325,4.0,10.0,35,0.00,,,0.00,meteohub,2013-04-23 13:47:00,
2013-04-23 06:52:00,56.1,34.2,29.97,NE,39,4.0,9.0,35,0.00,,,0.00,meteohub,2013-04-23 13:52:00,
2013-04-23 06:57:00,57.0,34.2,29.97,NW,319,4.0,9.0,35,0.00,,,0.00,meteohub,2013-04-23 13:57:00,
2013-04-23 07:02:00,57.7,34.2,29.97,North,355,4.0,8.0,35,0.00,,,0.00,meteohub,2013-04-23 14:02:00,
2013-04-23 07:07:00,58.1,34.2,29.97,NW,316,3.0,8.0,35,0.00,,,0.00,meteohub,2013-04-23 14:07:00,
2013-04-23 07:12:00,58.6,34.2,29.97,NNW,348,2.0,8.0,35,0.00,,,0.00,meteohub,2013-04-23 14:12:00,
2013-04-23 07:18:00,59.9,34.2,29.96,NNE,29,0.0,6.0,35,0.00,,,0.00,meteohub,2013-04-23 14:18:00,
2013-04-23 07:23:00,61.2,34.2,29.96,NNE,29,1.0,4.0,35,0.00,,,0.00,meteohub,2013-04-23 14:23:00,
2013-04-23 07:28:00,62.1,34.2,29.96,NE,38,6.0,7.0,35,0.00,,,0.00,meteohub,2013-04-23 14:28:00,
2013-04-23 07:34:00,62.6,34.2,29.96,NE,42,4.0,7.0,35,0.00,,,0.00,meteohub,2013-04-23 14:34:00,
2013-04-23 07:39:00,62.8,34.2,29.96,NNE,30,6.0,9.0,35,0.00,,,0.00,meteohub,2013-04-23 14:39:00,
2013-04-23 07:44:00,62.4,34.0,29.97,NNE,15,7.0,9.0,35,0.00,,,0.00,meteohub,2013-04-23 14:44:00,
2013-04-23 07:50:00,62.4,34.0,29.96,NE,43,7.0,9.0,35,0.00,,,0.00,meteohub,2013-04-23 14:50:00,
2013-04-23 07:55:00,63.0,34.0,29.96,NE,39,9.0,9.0,35,0.00,,,0.00,meteohub,2013-04-23 14:55:00,
2013-04-23 08:01:00,63.1,34.0,29.97,ENE,75,7.0,13.0,35,0.00,,,0.00,meteohub,2013-04-23 15:01:00,
2013-04-23 08:06:00,63.3,34.0,29.97,East,83,7.0,14.0,35,0.00,,,0.00,meteohub,2013-04-23 15:06:00,
2013-04-23 08:11:00,63.5,34.0,29.97,East,89,12.0,14.0,35,0.00,,,0.00,meteohub,2013-04-23 15:11:00,
2013-04-23 08:17:00,63.7,34.0,29.97,NNE,26,8.0,14.0,35,0.00,,,0.00,meteohub,2013-04-23 15:17:00,
2013-04-23 08:22:00,63.3,34.0,29.97,North,8,10.0,16.0,35,0.00,,,0.00,meteohub,2013-04-23 15:22:00,
2013-04-23 08:27:00,62.8,34.0,29.97,ENE,67,8.0,16.0,35,0.00,,,0.00,meteohub,2013-04-23 15:27:00,
2013-04-23 08:32:00,62.8,34.0,29.97,ENE,71,6.0,15.0,35,0.00,,,0.00,meteohub,2013-04-23 15:32:00,
2013-04-23 08:37:00,62.6,34.7,29.98,ENE,77,10.0,17.0,36,0.00,,,0.00,meteohub,2013-04-23 15:37:00,
2013-04-23 08:42:00,62.6,34.7,29.98,East,86,19.0,19.0,36,0.00,,,0.00,meteohub,2013-04-23 15:42:00,
2013-04-23 08:47:00,62.4,34.7,29.98,East,84,13.0,21.0,36,0.00,,,0.00,meteohub,2013-04-23 15:47:00,
2013-04-23 08:52:00,62.2,34.7,29.98,East,79,11.0,21.0,36,0.00,,,0.00,meteohub,2013-04-23 15:52:00,
2013-04-23 08:57:00,62.2,34.7,29.98,ESE,103,10.0,21.0,36,0.00,,,0.00,meteohub,2013-04-23 15:57:00,
2013-04-23 09:03:00,62.2,34.7,29.98,ESE,103,9.0,20.0,36,0.00,,,0.00,meteohub,2013-04-23 16:03:00,
2013-04-23 09:08:00,62.2,34.7,29.98,ENE,59,13.0,21.0,36,0.00,,,0.00,meteohub,2013-04-23 16:08:00,
2013-04-23 09:14:00,62.4,34.9,29.99,ENE,63,14.0,21.0,36,0.00,,,0.00,meteohub,2013-04-23 16:14:00,
2013-04-23 09:19:00,62.2,34.9,29.99,NE,56,8.0,21.0,36,0.00,,,0.00,meteohub,2013-04-23 16:19:00,
2013-04-23 09:24:00,62.2,34.9,29.99,NNE,20,15.0,21.0,36,0.00,,,0.00,meteohub,2013-04-23 16:24:00,
2013-04-23 09:30:00,62.4,34.9,29.99,NE,56,12.0,21.0,36,0.00,,,0.00,meteohub,2013-04-23 16:30:00,
2013-04-23 09:35:00,63.0,34.9,29.99,ENE,68,9.0,20.0,36,0.00,,,0.00,meteohub,2013-04-23 16:35:00,
2013-04-23 09:41:00,63.1,34.9,29.99,ENE,70,15.0,21.0,36,0.00,,,0.00,meteohub,2013-04-23 16:41:00,
2013-04-23 09:46:00,63.3,34.9,29.99,East,81,13.0,21.0,36,0.00,,,0.00,meteohub,2013-04-23 16:46:00,
2013-04-23 09:51:00,62.8,34.9,29.99,ENE,75,16.0,21.0,36,0.00,,,0.00,meteohub,2013-04-23 16:51:00,
2013-04-23 09:57:00,63.0,34.9,29.99,East,96,7.0,24.0,36,0.00,,,0.00,meteohub,2013-04-23 16:57:00,
2013-04-23 10:02:00,62.8,34.9,29.99,ENE,67,15.0,25.0,36,0.00,,,0.00,meteohub,2013-04-23 17:02:00,
2013-04-23 10:07:00,62.8,34.9,30.00,ENE,69,14.0,25.0,36,0.00,,,0.00,meteohub,2013-04-23 17:07:00,
2013-04-23 10:12:00,62.8,34.9,30.00,East,92,11.0,23.0,36,0.00,,,0.00,meteohub,2013-04-23 17:12:00,
2013-04-23 10:17:00,63.1,34.9,30.00,NE,46,11.0,23.0,36,0.00,,,0.00,meteohub,2013-04-23 17:17:00,
2013-04-23 10:22:00,63.0,34.9,30.01,ESE,119,12.0,23.0,36,0.00,,,0.00,meteohub,2013-04-23 17:22:00,
2013-04-23 10:28:00,63.0,34.9,30.01,ENE,70,15.0,24.0,36,0.00,,,0.00,meteohub,2013-04-23 17:28:00,
2013-04-23 10:33:00,62.8,35.1,30.01,ENE,61,10.0,24.0,36,0.00,,,0.00,meteohub,2013-04-23 17:33:00,
2013-04-23 10:39:00,63.7,35.1,30.01,East,79,19.0,24.0,36,0.00,,,0.00,meteohub,2013-04-23 17:39:00,
2013-04-23 10:44:00,63.5,35.1,30.01,East,79,17.0,23.0,36,0.00,,,0.00,meteohub,2013-04-23 17:44:00,
2013-04-23 10:50:00,63.3,35.1,30.01,East,82,22.0,26.0,36,0.00,,,0.00,meteohub,2013-04-23 17:50:00,
2013-04-23 10:55:00,63.3,35.1,30.01,NE,56,15.0,26.0,36,0.00,,,0.00,meteohub,2013-04-23 17:55:00,
2013-04-23 11:00:00,63.7,35.2,30.01,East,90,19.0,26.0,36,0.00,,,0.00,meteohub,2013-04-23 18:00:00,
2013-04-23 11:06:00,63.9,35.2,30.01,East,79,16.0,24.0,36,0.00,,,0.00,meteohub,2013-04-23 18:06:00,
2013-04-23 11:11:00,63.9,36.0,30.01,ENE,65,15.0,24.0,37,0.00,,,0.00,meteohub,2013-04-23 18:11:00,
2013-04-23 11:16:00,63.9,36.1,30.01,ENE,70,15.0,28.0,37,0.00,,,0.00,meteohub,2013-04-23 18:16:00,
2013-04-23 11:22:00,64.2,36.1,30.01,ENE,61,10.0,28.0,37,0.00,,,0.00,meteohub,2013-04-23 18:22:00,
2013-04-23 11:27:00,64.6,36.1,30.01,East,92,20.0,24.0,37,0.00,,,0.00,meteohub,2013-04-23 18:27:00,
2013-04-23 11:32:00,64.6,36.1,30.01,ENE,61,9.0,23.0,37,0.00,,,0.00,meteohub,2013-04-23 18:32:00,
2013-04-23 11:37:00,65.1,36.3,30.01,NNE,27,21.0,23.0,37,0.00,,,0.00,meteohub,2013-04-23 18:37:00,
2013-04-23 11:42:00,64.8,36.3,30.00,North,350,10.0,26.0,37,0.00,,,0.00,meteohub,2013-04-23 18:42:00,
2013-04-23 11:47:00,64.9,36.3,30.01,NE,34,21.0,26.0,37,0.00,,,0.00,meteohub,2013-04-23 18:47:00,
2013-04-23 11:52:00,64.9,36.3,30.00,NE,34,14.0,27.0,37,0.00,,,0.00,meteohub,2013-04-23 18:52:00,
2013-04-23 11:57:00,65.1,36.5,30.01,NE,50,13.0,27.0,37,0.00,,,0.00,meteohub,2013-04-23 18:57:00,
2013-04-23 12:02:00,65.7,36.5,30.00,NE,53,20.0,27.0,37,0.00,,,0.00,meteohub,2013-04-23 19:02:00,
2013-04-23 12:08:00,64.9,36.5,30.00,NE,49,26.0,26.0,37,0.00,,,0.00,meteohub,2013-04-23 19:08:00,
2013-04-23 12:13:00,65.5,36.7,30.00,ENE,63,10.0,26.0,37,0.00,,,0.00,meteohub,2013-04-23 19:13:00,
2013-04-23 12:18:00,65.7,36.7,30.01,ENE,75,15.0,26.0,37,0.00,,,0.00,meteohub,2013-04-23 19:18:00,
2013-04-23 12:24:00,66.4,36.7,30.01,East,88,18.0,26.0,37,0.00,,,0.00,meteohub,2013-04-23 19:24:00,
2013-04-23 12:29:00,66.0,36.7,30.01,ENE,60,6.0,25.0,37,0.00,,,0.00,meteohub,2013-04-23 19:29:00,
2013-04-23 12:34:00,66.0,36.7,30.01,East,84,11.0,22.0,37,0.00,,,0.00,meteohub,2013-04-23 19:34:00,
2013-04-23 12:40:00,65.8,36.9,30.01,ENE,70,11.0,22.0,37,0.00,,,0.00,meteohub,2013-04-23 19:40:00,
2013-04-23 12:45:00,65.8,36.9,30.01,East,95,8.0,22.0,37,0.00,,,0.00,meteohub,2013-04-23 19:45:00,
2013-04-23 12:50:00,66.4,36.9,30.01,NE,50,18.0,22.0,37,0.00,,,0.00,meteohub,2013-04-23 19:50:00,
2013-04-23 12:56:00,66.2,37.0,30.00,NE,37,12.0,23.0,37,0.00,,,0.00,meteohub,2013-04-23 19:56:00,
2013-04-23 13:01:00,66.2,37.0,30.01,ENE,70,11.0,23.0,37,0.00,,,0.00,meteohub,2013-04-23 20:01:00,
2013-04-23 13:06:00,65.8,37.0,30.01,ENE,67,13.0,23.0,37,0.00,,,0.00,meteohub,2013-04-23 20:06:00,
2013-04-23 13:13:00,66.4,37.2,30.01,ESE,102,15.0,21.0,37,0.00,,,0.00,meteohub,2013-04-23 20:13:00,
2013-04-23 13:18:00,65.5,37.2,30.01,NE,42,12.0,21.0,37,0.00,,,0.00,meteohub,2013-04-23 20:18:00,
2013-04-23 13:23:00,66.0,37.2,30.01,East,96,11.0,24.0,37,0.00,,,0.00,meteohub,2013-04-23 20:23:00,
2013-04-23 13:28:00,66.6,37.4,30.01,ENE,74,13.0,26.0,37,0.00,,,0.00,meteohub,2013-04-23 20:28:00,
2013-04-23 13:34:00,66.6,37.4,30.01,NE,56,17.0,26.0,37,0.00,,,0.00,meteohub,2013-04-23 20:34:00,
2013-04-23 13:39:00,66.7,37.6,30.00,ENE,64,11.0,19.0,37,0.00,,,0.00,meteohub,2013-04-23 20:39:00,
2013-04-23 13:44:00,66.9,37.8,30.00,ENE,77,14.0,21.0,37,0.00,,,0.00,meteohub,2013-04-23 20:44:00,
2013-04-23 13:50:00,66.9,37.8,30.01,ENE,75,17.0,21.0,37,0.00,,,0.00,meteohub,2013-04-23 20:50:00,
2013-04-23 13:55:00,66.9,37.8,30.01,ENE,77,10.0,21.0,37,0.00,,,0.00,meteohub,2013-04-23 20:55:00,
2013-04-23 14:01:00,66.7,37.9,30.00,NE,49,12.0,21.0,37,0.00,,,0.00,meteohub,2013-04-23 21:01:00,
2013-04-23 14:06:00,67.1,37.9,30.01,ESE,122,12.0,20.0,37,0.00,,,0.00,meteohub,2013-04-23 21:06:00,
2013-04-23 14:12:00,67.5,38.1,30.00,ENE,74,10.0,18.0,37,0.00,,,0.00,meteohub,2013-04-23 21:12:00,
2013-04-23 14:17:00,68.2,38.1,30.00,East,99,9.0,18.0,37,0.00,,,0.00,meteohub,2013-04-23 21:17:00,
2013-04-23 14:22:00,67.6,38.1,30.00,East,79,10.0,17.0,37,0.00,,,0.00,meteohub,2013-04-23 21:22:00,
2013-04-23 14:27:00,67.3,38.1,30.00,East,84,10.0,19.0,37,0.00,,,0.00,meteohub,2013-04-23 21:27:00,
2013-04-23 14:32:00,67.5,38.1,30.00,ENE,70,10.0,19.0,37,0.00,,,0.00,meteohub,2013-04-23 21:32:00,
2013-04-23 14:37:00,67.5,38.1,30.00,East,84,7.0,18.0,37,0.00,,,0.00,meteohub,2013-04-23 21:37:00,
2013-04-23 14:42:00,67.6,38.3,30.00,ENE,68,6.0,17.0,37,0.00,,,0.00,meteohub,2013-04-23 21:42:00,
2013-04-23 14:47:00,67.3,38.5,29.99,ENE,78,11.0,20.0,37,0.00,,,0.00,meteohub,2013-04-23 21:47:00,
2013-04-23 14:53:00,66.7,38.5,29.99,East,96,15.0,20.0,37,0.00,,,0.00,meteohub,2013-04-23 21:53:00,
2013-04-23 14:58:00,67.1,38.7,29.99,East,84,15.0,20.0,37,0.00,,,0.00,meteohub,2013-04-23 21:58:00,
2013-04-23 15:04:00,67.5,38.7,29.99,East,94,10.0,20.0,37,0.00,,,0.00,meteohub,2013-04-23 22:04:00,
2013-04-23 15:09:00,67.1,38.8,29.99,East,101,10.0,20.0,37,0.00,,,0.00,meteohub,2013-04-23 22:09:00,
2013-04-23 15:15:00,67.6,38.8,29.99,ENE,70,8.0,20.0,37,0.00,,,0.00,meteohub,2013-04-23 22:15:00,
2013-04-23 15:20:00,67.6,39.0,29.99,East,82,10.0,19.0,37,0.00,,,0.00,meteohub,2013-04-23 22:20:00,
2013-04-23 15:26:00,67.6,39.0,29.99,SE,130,7.0,18.0,37,0.00,,,0.00,meteohub,2013-04-23 22:26:00,
2013-04-23 15:31:00,67.8,39.2,29.98,ENE,74,9.0,18.0,37,0.00,,,0.00,meteohub,2013-04-23 22:31:00,
2013-04-23 15:37:00,67.8,39.4,29.98,NNE,19,7.0,16.0,37,0.00,,,0.00,meteohub,2013-04-23 22:37:00,
2013-04-23 15:42:00,67.6,39.4,29.98,NE,51,10.0,15.0,37,0.00,,,0.00,meteohub,2013-04-23 22:42:00,
2013-04-23 15:47:00,67.6,39.6,29.97,ENE,63,5.0,16.0,37,0.00,,,0.00,meteohub,2013-04-23 22:47:00,
2013-04-23 15:52:00,68.4,39.6,29.98,ENE,75,6.0,16.0,37,0.00,,,0.00,meteohub,2013-04-23 22:52:00,
2013-04-23 15:57:00,68.4,39.6,29.98,ENE,64,7.0,16.0,37,0.00,,,0.00,meteohub,2013-04-23 22:57:00,
2013-04-23 16:02:00,68.0,39.6,29.97,East,89,7.0,15.0,37,0.00,,,0.00,meteohub,2013-04-23 23:02:00,
2013-04-23 16:07:00,68.2,39.6,29.97,NE,47,6.0,15.0,37,0.00,,,0.00,meteohub,2013-04-23 23:07:00,
2013-04-23 16:12:00,67.6,39.7,29.97,East,88,9.0,12.0,37,0.00,,,0.00,meteohub,2013-04-23 23:12:00,
2013-04-23 16:17:00,67.6,39.9,29.97,East,91,7.0,15.0,37,0.00,,,0.00,meteohub,2013-04-23 23:17:00,
2013-04-23 16:22:00,68.2,40.1,29.97,East,101,5.0,15.0,37,0.00,,,0.00,meteohub,2013-04-23 23:22:00,
2013-04-23 16:28:00,68.2,40.8,29.97,East,86,6.0,15.0,38,0.00,,,0.00,meteohub,2013-04-23 23:28:00,
2013-04-23 16:33:00,68.2,41.0,29.97,ENE,77,6.0,12.0,38,0.00,,,0.00,meteohub,2013-04-23 23:33:00,
2013-04-23 16:38:00,68.0,41.0,29.97,NNE,30,9.0,11.0,38,0.00,,,0.00,meteohub,2013-04-23 23:38:00,
2013-04-23 16:44:00,67.8,41.2,29.97,East,86,5.0,11.0,38,0.00,,,0.00,meteohub,2013-04-23 23:44:00,
2013-04-23 16:49:00,68.2,41.2,29.97,NNE,30,5.0,11.0,38,0.00,,,0.00,meteohub,2013-04-23 23:49:00,
2013-04-23 16:55:00,68.0,41.4,29.97,NE,42,6.0,11.0,38,0.00,,,0.00,meteohub,2013-04-23 23:55:00,
2013-04-23 17:00:00,67.6,41.4,29.97,ENE,70,7.0,11.0,38,0.00,,,0.00,meteohub,2013-04-24 00:00:00,
2013-04-23 17:06:00,67.5,41.4,29.97,ENE,75,3.0,11.0,38,0.00,,,0.00,meteohub,2013-04-24 00:06:00,
2013-04-23 17:11:00,67.3,41.5,29.97,NNE,30,7.0,11.0,38,0.00,,,0.00,meteohub,2013-04-24 00:11:00,
2013-04-23 17:17:00,66.9,41.7,29.97,ENE,65,3.0,11.0,38,0.00,,,0.00,meteohub,2013-04-24 00:17:00,
2013-04-23 17:22:00,67.1,41.7,29.97,East,82,7.0,11.0,38,0.00,,,0.00,meteohub,2013-04-24 00:22:00,
2013-04-23 17:27:00,66.9,41.9,29.97,NNE,30,5.0,11.0,38,0.00,,,0.00,meteohub,2013-04-24 00:27:00,
2013-04-23 17:32:00,67.5,41.9,29.96,ENE,71,2.0,10.0,38,0.00,,,0.00,meteohub,2013-04-24 00:32:00,
2013-04-23 17:37:00,67.8,42.1,29.97,ESE,110,5.0,9.0,38,0.00,,,0.00,meteohub,2013-04-24 00:37:00,
2013-04-23 17:42:00,67.1,42.1,29.96,ENE,77,3.0,11.0,38,0.00,,,0.00,meteohub,2013-04-24 00:42:00,
2013-04-23 17:47:00,66.7,42.4,29.96,East,79,4.0,11.0,38,0.00,,,0.00,meteohub,2013-04-24 00:47:00,
2013-04-23 17:52:00,66.7,42.4,29.96,ESE,110,3.0,11.0,38,0.00,,,0.00,meteohub,2013-04-24 00:52:00,
2013-04-23 17:58:00,66.7,42.6,29.96,ENE,74,3.0,8.0,38,0.00,,,0.00,meteohub,2013-04-24 00:58:00,
2013-04-23 18:03:00,66.6,42.6,29.96,NE,43,1.0,8.0,38,0.00,,,0.00,meteohub,2013-04-24 01:03:00,
2013-04-23 18:09:00,66.2,42.8,29.96,ENE,70,3.0,8.0,38,0.00,,,0.00,meteohub,2013-04-24 01:09:00,
2013-04-23 18:14:00,65.8,42.8,29.96,East,95,4.0,8.0,38,0.00,,,0.00,meteohub,2013-04-24 01:14:00,
2013-04-23 18:19:00,65.5,42.8,29.96,East,99,5.0,9.0,38,0.00,,,0.00,meteohub,2013-04-24 01:19:00,
2013-04-23 18:25:00,65.5,42.3,29.96,ENE,70,5.0,9.0,37,0.00,,,0.00,meteohub,2013-04-24 01:25:00,
2013-04-23 18:30:00,65.1,42.3,29.96,East,81,4.0,7.0,37,0.00,,,0.00,meteohub,2013-04-24 01:30:00,
2013-04-23 18:36:00,64.8,42.4,29.95,NE,45,3.0,7.0,37,0.00,,,0.00,meteohub,2013-04-24 01:36:00,
2013-04-23 18:41:00,64.4,42.4,29.96,East,95,3.0,7.0,37,0.00,,,0.00,meteohub,2013-04-24 01:41:00,
2013-04-23 18:46:00,64.0,42.4,29.95,East,93,4.0,7.0,37,0.00,,,0.00,meteohub,2013-04-24 01:46:00,
2013-04-23 18:52:00,63.9,42.6,29.95,East,92,5.0,7.0,37,0.00,,,0.00,meteohub,2013-04-24 01:52:00,
2013-04-23 18:57:00,63.3,42.6,29.96,East,82,3.0,7.0,37,0.00,,,0.00,meteohub,2013-04-24 01:57:00,
2013-04-23 19:02:00,63.0,42.6,29.96,ENE,67,2.0,7.0,37,0.00,,,0.00,meteohub,2013-04-24 02:02:00,
2013-04-23 19:07:00,62.8,42.6,29.96,East,84,5.0,7.0,37,0.00,,,0.00,meteohub,2013-04-24 02:07:00,
2013-04-23 19:14:00,62.2,42.8,29.96,ESE,102,5.0,7.0,37,0.00,,,0.00,meteohub,2013-04-24 02:14:00,
2013-04-23 19:19:00,61.9,42.8,29.96,East,83,4.0,7.0,37,0.00,,,0.00,meteohub,2013-04-24 02:19:00,
2013-04-23 19:25:00,61.7,42.8,29.96,East,92,4.0,8.0,37,0.00,,,0.00,meteohub,2013-04-24 02:25:00,
2013-04-23 19:30:00,61.5,42.8,29.96,East,81,5.0,8.0,37,0.00,,,0.00,meteohub,2013-04-24 02:30:00,
2013-04-23 19:36:00,61.3,42.8,29.96,East,100,3.0,8.0,37,0.00,,,0.00,meteohub,2013-04-24 02:36:00,
2013-04-23 19:41:00,61.3,42.8,29.96,ESE,108,8.0,10.0,37,0.00,,,0.00,meteohub,2013-04-24 02:41:00,
2013-04-23 19:47:00,61.2,42.8,29.96,ESE,119,6.0,10.0,37,0.00,,,0.00,meteohub,2013-04-24 02:47:00,
2013-04-23 19:52:00,61.0,42.8,29.96,East,96,7.0,10.0,37,0.00,,,0.00,meteohub,2013-04-24 02:52:00,
2013-04-23 19:57:00,61.2,42.8,29.96,ESE,111,7.0,10.0,37,0.00,,,0.00,meteohub,2013-04-24 02:57:00,
2013-04-23 20:02:00,61.0,42.8,29.96,East,86,6.0,11.0,37,0.00,,,0.00,meteohub,2013-04-24 03:02:00,
2013-04-23 20:07:00,60.8,42.1,29.96,East,81,4.0,11.0,36,0.00,,,0.00,meteohub,2013-04-24 03:07:00,
2013-04-23 20:12:00,60.6,42.1,29.96,East,89,4.0,11.0,36,0.00,,,0.00,meteohub,2013-04-24 03:12:00,
2013-04-23 20:17:00,60.6,42.1,29.97,East,93,6.0,9.0,36,0.00,,,0.00,meteohub,2013-04-24 03:17:00,
2013-04-23 20:23:00,60.6,42.1,29.97,ESE,103,7.0,11.0,36,0.00,,,0.00,meteohub,2013-04-24 03:23:00,
2013-04-23 20:28:00,60.6,42.1,29.97,ESE,111,4.0,11.0,36,0.00,,,0.00,meteohub,2013-04-24 03:28:00,
2013-04-23 20:33:00,60.6,42.1,29.97,ESE,108,5.0,11.0,36,0.00,,,0.00,meteohub,2013-04-24 03:33:00,
2013-04-23 20:38:00,60.6,42.1,29.97,East,95,6.0,10.0,36,0.00,,,0.00,meteohub,2013-04-24 03:38:00,
2013-04-23 20:44:00,60.4,42.1,29.97,East,98,9.0,10.0,36,0.00,,,0.00,meteohub,2013-04-24 03:44:00,
2013-04-23 20:49:00,60.4,42.1,29.97,NE,40,5.0,10.0,36,0.00,,,0.00,meteohub,2013-04-24 03:49:00,
2013-04-23 20:55:00,60.4,42.1,29.97,ENE,67,9.0,10.0,36,0.00,,,0.00,meteohub,2013-04-24 03:55:00,
2013-04-23 21:01:00,60.6,42.1,29.97,NNE,32,4.0,11.0,36,0.00,,,0.00,meteohub,2013-04-24 04:01:00,
2013-04-23 21:02:00,60.6,42.1,29.97,NE,37,5.0,11.0,36,0.00,,,0.00,meteohub,2013-04-24 04:02:00,
2013-04-23 21:03:00,60.6,41.9,29.97,East,81,7.0,11.0,36,0.00,,,0.00,meteohub,2013-04-24 04:03:00,
2013-04-23 21:08:00,60.4,41.9,29.97,East,88,7.0,11.0,36,0.00,,,0.00,meteohub,2013-04-24 04:08:00,
2013-04-23 21:14:00,60.3,41.9,29.98,ENE,72,4.0,11.0,36,0.00,,,0.00,meteohub,2013-04-24 04:14:00,
2013-04-23 21:19:00,60.3,41.9,29.98,NE,51,8.0,9.0,36,0.00,,,0.00,meteohub,2013-04-24 04:19:00,
2013-04-23 21:25:00,60.3,41.9,29.98,East,90,3.0,10.0,36,0.00,,,0.00,meteohub,2013-04-24 04:25:00,
2013-04-23 21:30:00,60.3,41.9,29.98,ESE,109,8.0,10.0,36,0.00,,,0.00,meteohub,2013-04-24 04:30:00,
2013-04-23 21:35:00,60.3,41.9,29.98,East,92,5.0,10.0,36,0.00,,,0.00,meteohub,2013-04-24 04:35:00,
2013-04-23 21:41:00,60.1,41.9,29.98,East,90,5.0,10.0,36,0.00,,,0.00,meteohub,2013-04-24 04:41:00,
2013-04-23 21:46:00,60.1,41.7,29.98,East,96,5.0,9.0,36,0.00,,,0.00,meteohub,2013-04-24 04:46:00,
2013-04-23 21:52:00,60.1,41.7,29.98,East,84,2.0,9.0,36,0.00,,,0.00,meteohub,2013-04-24 04:52:00,
2013-04-23 21:57:00,60.1,41.7,29.98,ENE,74,5.0,9.0,36,0.00,,,0.00,meteohub,2013-04-24 04:57:00,
2013-04-23 22:02:00,60.1,41.7,29.98,East,85,5.0,9.0,36,0.00,,,0.00,meteohub,2013-04-24 05:02:00,
2013-04-23 22:07:00,60.1,41.7,29.98,ESE,105,10.0,10.0,36,0.00,,,0.00,meteohub,2013-04-24 05:07:00,
2013-04-23 22:12:00,60.3,41.7,29.98,East,86,6.0,10.0,36,0.00,,,0.00,meteohub,2013-04-24 05:12:00,
2013-04-23 22:17:00,60.3,41.7,29.98,ESE,103,7.0,10.0,36,0.00,,,0.00,meteohub,2013-04-24 05:17:00,
2013-04-23 22:22:00,60.1,41.7,29.98,East,95,5.0,10.0,36,0.00,,,0.00,meteohub,2013-04-24 05:22:00,
2013-04-23 22:28:00,60.3,41.5,29.98,East,89,4.0,9.0,36,0.00,,,0.00,meteohub,2013-04-24 05:28:00,
2013-04-23 22:33:00,60.3,41.5,29.98,East,96,6.0,9.0,36,0.00,,,0.00,meteohub,2013-04-24 05:33:00,
2013-04-23 22:39:00,60.1,41.5,29.98,East,82,5.0,9.0,36,0.00,,,0.00,meteohub,2013-04-24 05:39:00,
2013-04-23 22:44:00,60.1,41.5,29.97,ESE,116,6.0,9.0,36,0.00,,,0.00,meteohub,2013-04-24 05:44:00,
2013-04-23 22:50:00,60.1,41.5,29.97,SE,129,3.0,9.0,36,0.00,,,0.00,meteohub,2013-04-24 05:50:00,
2013-04-23 22:55:00,59.7,41.4,29.97,ESE,104,4.0,7.0,36,0.00,,,0.00,meteohub,2013-04-24 05:55:00,
2013-04-23 23:00:00,59.7,41.4,29.97,ESE,112,5.0,7.0,36,0.00,,,0.00,meteohub,2013-04-24 06:00:00,
2013-04-23 23:05:00,59.9,40.6,29.97,ESE,116,4.0,6.0,35,0.00,,,0.00,meteohub,2013-04-24 06:05:00,
2013-04-23 23:11:00,59.7,40.6,29.97,SE,132,3.0,6.0,35,0.00,,,0.00,meteohub,2013-04-24 06:11:00,
2013-04-23 23:16:00,59.2,40.6,29.97,ESE,121,3.0,7.0,35,0.00,,,0.00,meteohub,2013-04-24 06:16:00,
2013-04-23 23:21:00,58.8,40.5,29.97,SE,124,3.0,7.0,35,0.00,,,0.00,meteohub,2013-04-24 06:21:00,
2013-04-23 23:27:00,58.8,40.5,29.97,SE,128,3.0,7.0,35,0.00,,,0.00,meteohub,2013-04-24 06:27:00,
2013-04-23 23:32:00,58.6,40.5,29.97,ESE,118,2.0,6.0,35,0.00,,,0.00,meteohub,2013-04-24 06:32:00,
2013-04-23 23:37:00,58.5,40.5,29.97,SE,125,4.0,5.0,35,0.00,,,0.00,meteohub,2013-04-24 06:37:00,
2013-04-23 23:42:00,58.5,40.3,29.97,SE,138,4.0,5.0,35,0.00,,,0.00,meteohub,2013-04-24 06:42:00,
2013-04-23 23:47:00,58.6,40.3,29.97,SE,124,2.0,5.0,35,0.00,,,0.00,meteohub,2013-04-24 06:47:00,
2013-04-23 23:52:00,58.5,40.3,29.97,SE,127,2.0,5.0,35,0.00,,,0.00,meteohub,2013-04-24 06:52:00,
2013-04-23 23:57:00,58.5,40.3,29.97,SE,126,2.0,5.0,35,0.00,,,0.00,meteohub,2013-04-24 06:57:00,